• In Russia
  • List of Countries
  • For 7 days
  • Water Temperature
  • Satellite Maps
  • Weather Map
  • Weather Widgets
  • user-avatar
    Login

    Hourly Weather Shaki

    Today, 25 September, Monday

    Time Temperature Precipitation Wind Pressure Humidity
    00:00 +21°C° 0 mm 2 mps 739 mmHg 78%
    01:00 +20°C° 0 mm 2 mps 739 mmHg 79%
    02:00 +20°C° 0 mm 2 mps 739 mmHg 80%
    03:00 +21°C° 0 mm 1 mps 739 mmHg 83%
    04:00 +21°C° 0 mm 1 mps 739 mmHg 83%
    05:00 +20°C° 0 mm 1 mps 739 mmHg 83%
    06:00 +20°C° 0 mm 1 mps 739 mmHg 83%
    07:00 +22°C° 0 mm 1 mps 739 mmHg 76%
    08:00 +23°C° 0 mm 1 mps 739 mmHg 70%
    09:00 +25°C° 0 mm 1 mps 739 mmHg 62%
    10:00 +26°C° 0 mm 2 mps 739 mmHg 58%
    11:00 +26°C° 0 mm 2 mps 739 mmHg 54%
    12:00 +27°C° 0 mm 2 mps 739 mmHg 50%
    13:00 +28°C° 0.1 mm 2 mps 739 mmHg 49%
    14:00 +28°C° 0.1 mm 2 mps 739 mmHg 47%
    15:00 +28°C° 0 mm 3 mps 739 mmHg 45%
    16:00 +27°C° 0.1 mm 3 mps 739 mmHg 49%
    17:00 +26°C° 0.1 mm 3 mps 739 mmHg 53%
    18:00 +25°C° 0.1 mm 2 mps 739 mmHg 57%
    19:00 +24°C° 0 mm 3 mps 739 mmHg 59%
    20:00 +24°C° 0 mm 3 mps 739 mmHg 61%
    21:00 +22°C° 0 mm 3 mps 739 mmHg 63%
    22:00 +22°C° 0 mm 3 mps 739 mmHg 64%
    23:00 +21°C° 0 mm 3 mps 739 mmHg 65%

    Tomorrow, 26 September, Tuesday

    Time Temperature Precipitation Wind Pressure Humidity
    00:00 +21°C° 0 mm 3 mps 739 mmHg 66%
    01:00 +20°C° 0 mm 3 mps 739 mmHg 67%
    02:00 +19°C° 0 mm 2 mps 739 mmHg 67%
    03:00 +19°C° 0 mm 2 mps 739 mmHg 68%
    04:00 +18°C° 0 mm 2 mps 739 mmHg 68%
    05:00 +18°C° 0 mm 2 mps 738 mmHg 68%
    06:00 +18°C° 0 mm 2 mps 738 mmHg 68%
    07:00 +19°C° 0 mm 2 mps 738 mmHg 62%
    08:00 +21°C° 0 mm 2 mps 738 mmHg 56%
    09:00 +22°C° 0 mm 3 mps 739 mmHg 50%
    10:00 +24°C° 0 mm 3 mps 738 mmHg 48%
    11:00 +25°C° 0 mm 3 mps 738 mmHg 46%
    12:00 +26°C° 0 mm 3 mps 738 mmHg 43%
    13:00 +26°C° 0 mm 3 mps 738 mmHg 43%
    14:00 +26°C° 0 mm 3 mps 738 mmHg 42%
    15:00 +27°C° 0 mm 4 mps 738 mmHg 41%
    16:00 +25°C° 0 mm 4 mps 738 mmHg 48%
    17:00 +23°C° 0 mm 4 mps 738 mmHg 54%
    18:00 +21°C° 0 mm 4 mps 738 mmHg 60%
    19:00 +21°C° 0 mm 4 mps 738 mmHg 63%
    20:00 +20°C° 0 mm 4 mps 738 mmHg 66%
    21:00 +19°C° 0 mm 5 mps 738 mmHg 69%
    22:00 +19°C° 0 mm 4 mps 738 mmHg 70%
    23:00 +18°C° 0 mm 4 mps 738 mmHg 71%

    Day after tomorrow, 27 September, Wednesday

    Time Temperature Precipitation Wind Pressure Humidity
    00:00 +18°C° 0 mm 3 mps 738 mmHg 72%
    01:00 +18°C° 0 mm 3 mps 738 mmHg 71%
    02:00 +18°C° 0 mm 3 mps 738 mmHg 70%
    03:00 +18°C° 0 mm 2 mps 737 mmHg 69%
    04:00 +17°C° 0 mm 2 mps 737 mmHg 70%
    05:00 +17°C° 0 mm 2 mps 737 mmHg 71%
    06:00 +17°C° 0 mm 2 mps 737 mmHg 71%
    07:00 +17°C° 0 mm 2 mps 737 mmHg 68%
    08:00 +18°C° 0 mm 2 mps 737 mmHg 66%
    09:00 +19°C° 0 mm 2 mps 738 mmHg 63%
    10:00 +19°C° 0.2 mm 2 mps 738 mmHg 64%
    11:00 +19°C° 0.2 mm 2 mps 738 mmHg 65%
    12:00 +19°C° 0.2 mm 2 mps 738 mmHg 66%
    13:00 +20°C° 0.1 mm 2 mps 737 mmHg 65%
    14:00 +20°C° 0.1 mm 2 mps 737 mmHg 64%
    15:00 +20°C° 0.1 mm 2 mps 737 mmHg 63%
    16:00 +19°C° 0 mm 2 mps 737 mmHg 69%
    17:00 +18°C° 0 mm 2 mps 738 mmHg 75%
    18:00 +17°C° 0 mm 2 mps 738 mmHg 81%
    19:00 +17°C° 0.9 mm 2 mps 738 mmHg 83%
    20:00 +17°C° 0.9 mm 2 mps 738 mmHg 86%
    21:00 +17°C° 0.9 mm 2 mps 739 mmHg 88%
    22:00 +16°C° 0.6 mm 2 mps 739 mmHg 88%
    23:00 +16°C° 0.6 mm 2 mps 739 mmHg 88%

    28 September, Thursday

    Time Temperature Precipitation Wind Pressure Humidity
    00:00 +16°C° 0.6 mm 2 mps 738 mmHg 88%
    01:00 +16°C° 0.2 mm 2 mps 738 mmHg 87%
    02:00 +16°C° 0.2 mm 2 mps 738 mmHg 87%
    03:00 +16°C° 0.2 mm 2 mps 738 mmHg 86%
    04:00 +15°C° 0.2 mm 2 mps 738 mmHg 86%
    05:00 +15°C° 0.2 mm 2 mps 738 mmHg 86%
    06:00 +15°C° 0.2 mm 2 mps 739 mmHg 85%
    07:00 +14°C° 0.9 mm 3 mps 739 mmHg 85%
    08:00 +14°C° 0.9 mm 3 mps 739 mmHg 85%
    09:00 +14°C° 0.9 mm 3 mps 739 mmHg 84%
    10:00 +16°C° 0.9 mm 3 mps 739 mmHg 83%
    11:00 +16°C° 0.9 mm 3 mps 739 mmHg 83%
    12:00 +16°C° 0.9 mm 3 mps 739 mmHg 82%
    13:00 +16°C° 0.5 mm 3 mps 740 mmHg 81%
    14:00 +16°C° 0.5 mm 3 mps 740 mmHg 80%
    15:00 +16°C° 0.5 mm 2 mps 740 mmHg 79%
    16:00 +16°C° 0.3 mm 2 mps 740 mmHg 80%
    17:00 +16°C° 0.3 mm 2 mps 740 mmHg 80%
    18:00 +15°C° 0.3 mm 2 mps 741 mmHg 80%
    19:00 +15°C° 0.7 mm 2 mps 741 mmHg 81%
    20:00 +15°C° 0.7 mm 2 mps 741 mmHg 82%
    21:00 +15°C° 0.7 mm 1 mps 742 mmHg 83%
    22:00 +15°C° 0.5 mm 1 mps 741 mmHg 82%
    23:00 +14°C° 0.5 mm 1 mps 741 mmHg 82%

    29 September, Friday

    Time Temperature Precipitation Wind Pressure Humidity
    00:00 +14°C° 0.5 mm 1 mps 741 mmHg 82%
    01:00 +14°C° 0.3 mm 1 mps 741 mmHg 82%
    02:00 +14°C° 0.3 mm 1 mps 741 mmHg 83%
    03:00 +14°C° 0.3 mm 1 mps 741 mmHg 83%
    04:00 +14°C° 0.1 mm 1 mps 741 mmHg 83%
    05:00 +14°C° 0.1 mm 1 mps 741 mmHg 84%
    06:00 +14°C° 0.1 mm 1 mps 741 mmHg 84%
    07:00 +14°C° 0.1 mm 1 mps 741 mmHg 83%
    08:00 +15°C° 0.1 mm 2 mps 741 mmHg 82%
    09:00 +15°C° 0.1 mm 2 mps 741 mmHg 80%
    10:00 +16°C° 0.1 mm 2 mps 740 mmHg 78%
    11:00 +16°C° 0.1 mm 2 mps 740 mmHg 76%
    12:00 +17°C° 0.1 mm 2 mps 740 mmHg 74%
    13:00 +17°C° 0 mm 2 mps 740 mmHg 72%
    14:00 +17°C° 0 mm 2 mps 739 mmHg 71%
    15:00 +18°C° 0 mm 2 mps 739 mmHg 69%
    16:00 +17°C° 0 mm 2 mps 739 mmHg 71%
    17:00 +16°C° 0 mm 2 mps 739 mmHg 74%
    18:00 +16°C° 0 mm 1 mps 739 mmHg 76%
    19:00 +16°C° 0 mm 1 mps 739 mmHg 75%
    20:00 +16°C° 0 mm 1 mps 739 mmHg 74%
    21:00 +16°C° 0 mm 2 mps 739 mmHg 73%
    22:00 +16°C° 0 mm 1 mps 738 mmHg 72%
    23:00 +16°C° 0 mm 1 mps 738 mmHg 71%

    30 September, Saturday

    Time Temperature Precipitation Wind Pressure Humidity
    00:00 +16°C° 0 mm 1 mps 737 mmHg 70%
    01:00 +16°C° 0 mm 1 mps 737 mmHg 71%
    02:00 +15°C° 0 mm 1 mps 737 mmHg 72%
    03:00 +15°C° 0 mm 1 mps 736 mmHg 72%
    04:00 +15°C° 0 mm 1 mps 736 mmHg 73%
    05:00 +15°C° 0 mm 1 mps 736 mmHg 73%
    06:00 +15°C° 0 mm 1 mps 735 mmHg 74%
    07:00 +16°C° 0 mm 1 mps 735 mmHg 71%
    08:00 +18°C° 0 mm 1 mps 735 mmHg 67%
    09:00 +20°C° 0 mm 1 mps 735 mmHg 64%
    10:00 +21°C° 0 mm 1 mps 734 mmHg 60%
    11:00 +22°C° 0 mm 1 mps 734 mmHg 57%
    12:00 +23°C° 0 mm 1 mps 734 mmHg 53%
    13:00 +23°C° 0 mm 2 mps 733 mmHg 51%
    14:00 +23°C° 0 mm 2 mps 733 mmHg 50%
    15:00 +22°C° 0 mm 3 mps 733 mmHg 49%
    16:00 +21°C° 0.2 mm 2 mps 732 mmHg 52%
    17:00 +20°C° 0.2 mm 2 mps 732 mmHg 56%
    18:00 +19°C° 0.2 mm 2 mps 732 mmHg 60%
    19:00 +18°C° 0.1 mm 2 mps 732 mmHg 61%
    20:00 +18°C° 0.1 mm 2 mps 732 mmHg 61%
    21:00 +18°C° 0.1 mm 2 mps 732 mmHg 62%
    22:00 +17°C° 0 mm 2 mps 732 mmHg 61%
    23:00 +17°C° 0 mm 2 mps 732 mmHg 61%
    Show more